Location: Eboldshausen
(51.7766°N, 10.0050°E)
Time: 15:51:24
(UTC+00:00)

MOZ.5/SAFIR/RUBIN 5/SL-8 - Visible Passes

Search period start: 08 September 2024 00:00
Search period end: 18 September 2024 00:00
Orbit: 671 x 698 km, 98.3° (Epoch: 07 September)

Date Brightness Start Highest point End Pass type
(mag) Time Alt. Az. Time Alt. Az. Time Alt. Az.
08 Sep 4.6 00:40:07 47° N 00:40:07 47° N 00:43:34 10° NNW visible
08 Sep 5.9 02:18:38 14° WNW 02:18:38 14° WNW 02:19:50 10° NW visible
08 Sep 5.7 23:39:25 25° NE 23:39:25 25° NE 23:42:53 10° N visible
09 Sep 5.0 01:17:57 33° NW 01:17:57 33° NW 01:20:47 10° NNW visible
10 Sep 5.1 00:17:14 39° NNE 00:17:14 39° NNE 00:20:35 10° N visible
10 Sep 5.6 01:55:46 19° NW 01:55:46 19° NW 01:57:36 10° NW visible
10 Sep 6.1 23:16:31 18° NE 23:16:31 18° NE 23:19:30 10° NNE visible
11 Sep 4.9 00:55:03 38° NNW 00:55:03 38° NNW 00:57:57 10° NNW visible
11 Sep 5.5 23:54:20 29° NE 23:54:20 29° NE 23:57:26 10° N visible
12 Sep 5.4 01:32:51 24° NW 01:32:51 24° NW 01:35:01 10° NNW visible
12 Sep 6.4 22:53:36 12° NE 22:53:48 12° NE 22:55:40 10° NNE visible
13 Sep 5.2 00:32:07 36° N 00:32:07 36° N 00:34:59 10° N visible
13 Sep 5.9 02:10:38 14° NW 02:10:38 14° NW 02:11:35 10° NW visible
13 Sep 6.0 23:31:23 21° NE 23:31:23 21° NE 23:34:08 10° N visible
14 Sep 5.3 01:09:55 28° NNW 01:09:55 28° NNW 01:12:14 10° NNW visible
15 Sep 5.6 00:09:10 30° NNE 00:09:10 30° NNE 00:11:52 10° N visible
15 Sep 5.8 01:47:41 18° NW 01:47:41 18° NW 01:49:07 10° NNW visible
15 Sep 6.3 23:08:25 15° NE 23:08:25 15° NE 23:10:33 10° NNE visible
16 Sep 5.4 00:46:56 30° NNW 00:46:56 30° NNW 00:49:17 10° NNW visible
16 Sep 5.9 23:46:11 23° NNE 23:46:11 23° NNE 23:48:36 10° N visible
17 Sep 5.7 01:24:42 21° NNW 01:24:42 21° NNW 01:26:23 10° NNW visible
17 Sep 6.6 22:45:25 10° NE 22:45:25 10° NE 22:46:03 10° NE visible
